Location: Ferchesar
(52.6477°N, 12.4298°E)
Time: 08:37:41
(UTC+01:00)

Transit 4A - Visible Passes

Search period start: 07 December 2021 00:00
Search period end: 17 December 2021 00:00
Orbit: 866 x 978 km, 66.8° (Epoch: 06 December)

Date Brightness Start Highest point End Pass type
(mag) Time Alt. Az. Time Alt. Az. Time Alt. Az.
07 Dec 8.5 18:06:32 10° S 18:11:43 33° ESE 18:12:24 32° E visible
07 Dec 8.7 19:51:50 10° SW 19:55:57 44° WSW 19:55:57 44° WSW visible
08 Dec 8.1 18:15:14 10° S 18:20:48 45° ESE 18:22:04 40° E visible
08 Dec 8.9 20:01:22 10° WSW 20:05:37 41° W 20:05:37 41° W visible
09 Dec 9.6 16:42:16 10° SE 16:44:51 13° E 16:47:28 10° ENE visible
09 Dec 7.8 18:24:10 10° SSW 18:29:59 62° ESE 18:31:39 45° ENE visible
09 Dec 9.2 20:11:03 10° WSW 20:15:11 35° WNW 20:15:11 35° WNW visible
10 Dec 9.3 16:49:45 10° SSE 16:53:45 19° ESE 16:57:37 11° ENE visible
10 Dec 7.7 18:33:17 10° SSW 18:39:13 83° SE 18:41:09 46° NE visible
10 Dec 9.5 20:20:49 10° W 20:24:41 30° WNW 20:24:41 30° WNW visible
11 Dec 8.9 16:57:55 10° SSE 17:02:44 27° ESE 17:07:04 12° ENE visible
11 Dec 7.9 18:42:35 10° SW 18:48:33 77° NW 18:50:35 44° NNE visible
11 Dec 9.7 20:30:39 10° W 20:34:07 25° NW 20:34:07 25° NW visible
12 Dec 8.5 17:06:25 10° S 17:11:47 37° ESE 17:16:26 14° NE visible
12 Dec 8.2 18:52:03 10° WSW 18:57:56 59° NW 18:59:58 40° NNE visible
12 Dec 9.9 20:40:33 10° WNW 20:43:30 22° NW 20:43:30 22° NW visible
13 Dec 8.1 17:15:13 10° SSW 17:20:54 51° ESE 17:25:46 15° NE visible
13 Dec 8.6 19:01:38 10° WSW 19:07:23 47° NW 19:09:18 36° N visible
13 Dec 10.1 20:50:27 10° WNW 20:52:49 19° NW 20:52:49 19° NW visible
14 Dec 7.9 17:24:13 10° SSW 17:30:06 69° ESE 17:35:03 16° NE visible
14 Dec 8.9 19:11:20 10° W 19:16:55 38° NNW 19:18:35 33° N visible
14 Dec 10.3 21:00:18 10° WNW 21:02:05 16° NW 21:02:05 16° NW visible
15 Dec 7.9 17:33:25 10° SW 17:39:22 90° NW 17:44:18 17° NE visible
15 Dec 9.1 19:21:08 10° W 19:26:30 32° NNW 19:27:49 30° N visible
15 Dec 10.4 21:10:06 10° NW 21:11:20 14° NW 21:11:20 14° NW visible
16 Dec 8.1 17:42:46 10° SW 17:48:43 70° NW 17:53:31 17° NE visible
16 Dec 9.3 19:31:00 10° W 19:36:09 28° NNW 19:37:02 27° N visible
16 Dec 10.5 21:19:50 10° NW 21:20:32 12° NW 21:20:32 12° NW visible
